Year,Month,Day,Hour,Minute,Value (Times are PST for temperature in C)
2019,03,05,09,56,3.00
2019,03,05,09,57,3.00
2019,03,05,09,58,3.10
2019,03,05,09,59,3.10
2019,03,05,10,00,3.10
2019,03,05,10,01,3.10
2019,03,05,10,02,3.20
2019,03,05,10,03,3.20
2019,03,05,10,04,3.30
2019,03,05,10,05,3.30
2019,03,05,10,06,3.30
2019,03,05,10,07,3.40
2019,03,05,11,02,3.90
2019,03,05,11,03,3.90
2019,03,05,11,04,3.90
2019,03,05,11,05,4.00
2019,03,05,11,06,4.00
2019,03,05,11,07,4.00
2019,03,05,11,08,4.00
2019,03,05,11,09,4.00
2019,03,05,11,10,4.00
2019,03,05,11,11,4.00
2019,03,05,11,12,4.00
2019,03,05,11,13,4.00
2019,03,05,11,14,4.00
2019,03,05,11,15,4.00
2019,03,05,11,16,4.00
2019,03,05,11,17,3.90
2019,03,05,11,18,3.90
2019,03,05,11,19,3.90
2019,03,05,11,20,3.90
2019,03,05,11,21,3.80
2019,03,05,11,22,3.80
2019,03,05,11,23,3.80
2019,03,05,11,24,3.80
2019,03,05,11,25,3.90
2019,03,05,11,26,3.90
2019,03,05,11,27,3.90
2019,03,05,11,28,3.90
2019,03,05,11,29,3.90
2019,03,05,11,30,4.00
2019,03,05,11,31,4.00
2019,03,05,11,32,4.00
2019,03,05,11,33,4.10
2019,03,05,11,34,4.10
2019,03,05,11,35,4.10
2019,03,05,11,36,4.10
2019,03,05,11,37,4.20
2019,03,05,11,38,4.20
2019,03,05,11,39,4.20
2019,03,05,11,40,4.30
2019,03,05,11,41,4.30
2019,03,05,11,42,4.30
2019,03,05,11,43,4.30
2019,03,05,11,44,4.30
2019,03,05,11,45,4.30
2019,03,05,11,46,4.30
2019,03,05,11,47,4.30
2019,03,05,11,48,4.30
2019,03,05,11,49,4.30
2019,03,05,11,50,4.30
2019,03,05,11,51,4.40
2019,03,05,11,52,4.40
2019,03,05,11,53,4.40
2019,03,05,11,54,4.40
2019,03,05,11,55,4.40
2019,03,05,11,56,4.50
2019,03,05,11,57,4.50
2019,03,05,11,58,4.50
2019,03,05,11,59,4.60
2019,03,05,12,00,4.60
2019,03,05,12,01,4.70
2019,03,05,12,02,4.70
2019,03,05,12,03,4.70
2019,03,05,12,04,4.70
2019,03,05,12,05,4.70
2019,03,05,12,06,4.80
2019,03,05,12,07,4.80
2019,03,05,12,08,4.80
2019,03,05,12,09,4.80
2019,03,05,12,10,4.90
2019,03,05,12,11,5.10
2019,03,05,12,12,5.20
2019,03,05,12,13,5.20
2019,03,05,12,14,5.30
2019,03,05,12,15,5.40
2019,03,05,12,16,5.50
2019,03,05,12,17,5.60
2019,03,05,12,18,5.70
2019,03,05,12,19,5.70
2019,03,05,12,20,5.70
2019,03,05,12,21,5.70
2019,03,05,12,22,5.70
2019,03,05,12,23,5.70
2019,03,05,12,24,5.80
2019,03,05,12,25,5.80
2019,03,05,12,26,5.90
2019,03,05,12,27,5.90
2019,03,05,12,28,5.90
2019,03,05,12,29,6.00
2019,03,05,12,30,6.10
2019,03,05,12,31,6.20
2019,03,05,12,32,6.30
2019,03,05,12,33,6.40
2019,03,05,12,34,6.50
2019,03,05,12,35,6.50
2019,03,05,12,36,6.50
2019,03,05,12,37,6.60
2019,03,05,12,38,6.50
2019,03,05,12,39,6.50
2019,03,05,12,40,6.60
2019,03,05,12,41,6.60
2019,03,05,12,42,6.60
2019,03,05,12,43,6.60
2019,03,05,12,44,6.70
2019,03,05,12,45,6.70
2019,03,05,12,46,6.70
2019,03,05,12,47,6.80
2019,03,05,12,48,6.80
2019,03,05,12,49,6.80
2019,03,05,12,50,6.80
2019,03,05,12,51,6.70
2019,03,05,12,52,6.80
2019,03,05,12,53,6.80
2019,03,05,12,54,6.80
2019,03,05,12,55,6.80
2019,03,05,12,56,6.80
2019,03,05,12,57,6.70
2019,03,05,12,58,6.70
2019,03,05,12,59,6.70
2019,03,05,13,00,6.70
2019,03,05,13,01,6.70
2019,03,05,13,02,6.60
2019,03,05,13,03,6.60
2019,03,05,13,04,6.60
2019,03,05,13,05,6.70
2019,03,05,13,06,6.70
2019,03,05,13,07,6.80
2019,03,05,13,08,6.90
2019,03,05,13,09,6.90
2019,03,05,13,10,7.00
2019,03,05,13,11,7.10
2019,03,05,13,12,7.20
2019,03,05,13,13,7.30
2019,03,05,13,14,7.50
2019,03,05,13,15,7.60
2019,03,05,13,16,7.70
2019,03,05,13,17,7.80
2019,03,05,13,18,7.80
2019,03,05,13,19,7.70
2019,03,05,13,20,7.70
2019,03,05,13,21,7.70
2019,03,05,13,22,7.70
2019,03,05,13,23,7.70
2019,03,05,13,24,7.70
2019,03,05,13,25,7.70
2019,03,05,13,26,7.70
2019,03,05,13,27,7.70
2019,03,05,13,28,7.70
2019,03,05,13,29,7.70
2019,03,05,13,30,7.70
2019,03,05,13,31,7.80
2019,03,05,13,32,7.80
2019,03,05,13,33,7.80
2019,03,05,13,34,7.80
2019,03,05,13,35,7.90
2019,03,05,13,36,7.90
2019,03,05,13,37,7.90
2019,03,05,13,38,7.90
2019,03,05,13,39,8.00
2019,03,05,13,40,8.00
2019,03,05,13,41,8.10
2019,03,05,13,42,8.10
2019,03,05,13,43,8.20
2019,03,05,13,44,8.30
2019,03,05,13,45,8.40
2019,03,05,13,46,8.40
2019,03,05,13,47,8.50
2019,03,05,13,48,8.60
2019,03,05,13,49,8.70
2019,03,05,13,50,8.80
2019,03,05,13,51,8.90
2019,03,05,13,52,9.00
2019,03,05,13,53,9.00
2019,03,05,13,54,9.10
2019,03,05,13,55,9.10
2019,03,05,13,56,9.20
2019,03,05,13,57,9.30
2019,03,05,13,58,9.30
2019,03,05,13,59,9.30
2019,03,05,14,00,9.40
2019,03,05,14,01,9.40
2019,03,05,14,02,9.40
2019,03,05,14,03,9.40
2019,03,05,14,04,9.40
2019,03,05,14,05,9.40
2019,03,05,14,06,9.40
2019,03,05,14,07,9.40
2019,03,05,14,08,9.30
2019,03,05,14,09,9.30
2019,03,05,14,10,9.30
2019,03,05,14,11,9.20
2019,03,05,14,12,9.20
2019,03,05,14,13,9.10
2019,03,05,14,14,9.10
2019,03,05,14,15,9.10
2019,03,05,14,16,9.00
2019,03,05,14,17,8.90
2019,03,05,14,18,8.80
2019,03,05,14,19,8.80
2019,03,05,14,20,8.70
2019,03,05,14,21,8.60
2019,03,05,14,22,8.50
2019,03,05,14,23,8.50
2019,03,05,14,24,8.40
2019,03,05,14,25,8.40
2019,03,05,14,26,8.40
2019,03,05,14,27,8.50
2019,03,05,14,28,8.60
2019,03,05,14,29,8.60
2019,03,05,14,30,8.70
2019,03,05,14,31,8.80
2019,03,05,14,32,8.80
2019,03,05,14,33,8.80
2019,03,05,14,34,8.80
2019,03,05,14,35,8.80
2019,03,05,14,36,8.90
2019,03,05,14,37,8.90
2019,03,05,14,38,9.00
2019,03,05,14,39,9.00
2019,03,05,14,40,9.10
2019,03,05,14,41,9.20
2019,03,05,14,42,9.20
2019,03,05,14,43,9.20
2019,03,05,14,44,9.20
2019,03,05,14,45,9.30
2019,03,05,14,46,9.30
2019,03,05,14,47,9.30
2019,03,05,14,48,9.30
2019,03,05,14,49,9.30
2019,03,05,14,50,9.20
2019,03,05,14,51,9.20
2019,03,05,14,52,9.10
2019,03,05,14,53,9.10
2019,03,05,14,54,9.10
2019,03,05,14,55,9.10
2019,03,05,14,56,9.10
2019,03,05,14,57,9.10
2019,03,05,14,58,9.00
2019,03,05,14,59,9.00
2019,03,05,15,00,9.00
2019,03,05,15,01,9.00
2019,03,05,15,02,9.00
2019,03,05,15,03,9.00
2019,03,05,15,04,8.90
2019,03,05,15,05,8.90
2019,03,05,15,06,8.80
2019,03,05,15,07,8.70
2019,03,05,15,08,8.70
2019,03,05,15,09,8.60
2019,03,05,15,10,8.60
2019,03,05,15,11,8.60
2019,03,05,15,12,8.50
2019,03,05,15,13,8.50
2019,03,05,15,14,8.40
2019,03,05,15,15,8.50
2019,03,05,15,16,8.50
2019,03,05,15,17,8.50
2019,03,05,15,18,8.60
2019,03,05,15,19,8.60
2019,03,05,15,20,8.60
2019,03,05,15,21,8.60
2019,03,05,15,22,8.60
2019,03,05,15,23,8.60
2019,03,05,15,24,8.60
2019,03,05,15,25,8.60
2019,03,05,15,26,8.60
2019,03,05,15,27,8.60
2019,03,05,15,28,8.60
2019,03,05,15,29,8.70
2019,03,05,15,30,8.70
2019,03,05,15,31,8.70
2019,03,05,15,32,8.70
2019,03,05,15,33,8.70
2019,03,05,15,34,8.70
2019,03,05,15,35,8.70
2019,03,05,15,36,8.70
2019,03,05,15,37,8.80
2019,03,05,15,38,8.80
2019,03,05,15,39,8.80
2019,03,05,15,40,8.70
2019,03,05,15,41,8.70
2019,03,05,15,42,8.70
2019,03,05,15,43,8.70
2019,03,05,15,44,8.60
2019,03,05,15,45,8.60
2019,03,05,15,46,8.60
2019,03,05,15,47,8.60
2019,03,05,15,48,8.50
2019,03,05,15,49,8.50
2019,03,05,15,50,8.40
2019,03,05,15,51,8.40
2019,03,05,15,52,8.40
2019,03,05,15,53,8.40
2019,03,05,15,54,8.40
2019,03,05,15,55,8.40
2019,03,05,15,56,8.40
2019,03,05,15,57,8.40
2019,03,05,15,58,8.40
2019,03,05,15,59,8.40
2019,03,05,16,00,8.40
2019,03,05,16,01,8.40
2019,03,05,16,02,8.40
2019,03,05,16,03,8.40
2019,03,05,16,04,8.40
2019,03,05,16,05,8.50
2019,03,05,16,06,8.50
2019,03,05,16,07,8.50
2019,03,05,16,08,8.60
2019,03,05,16,09,8.60
2019,03,05,16,10,8.60
2019,03,05,16,11,8.70
2019,03,05,16,12,8.70
2019,03,05,16,13,8.70
2019,03,05,16,14,8.70
2019,03,05,16,15,8.70
2019,03,05,16,16,8.70
2019,03,05,16,17,8.60
2019,03,05,16,18,8.60
2019,03,05,16,19,8.60
2019,03,05,16,20,8.50
2019,03,05,16,21,8.50
2019,03,05,16,22,8.40
2019,03,05,16,23,8.40
2019,03,05,16,24,8.40
2019,03,05,16,25,8.40
2019,03,05,16,26,8.40
2019,03,05,16,27,8.40
2019,03,05,16,28,8.40
2019,03,05,16,29,8.40
2019,03,05,16,30,8.30
2019,03,05,16,31,8.30
2019,03,05,16,32,8.30
2019,03,05,16,33,8.30
2019,03,05,16,34,8.30
2019,03,05,16,35,8.30
2019,03,05,16,36,8.30
2019,03,05,16,37,8.30
2019,03,05,16,38,8.30
2019,03,05,16,39,8.30
2019,03,05,16,40,8.30
2019,03,05,16,41,8.30
2019,03,05,16,42,8.30
2019,03,05,16,43,8.30
2019,03,05,16,44,8.30
2019,03,05,16,45,8.30
2019,03,05,16,46,8.30
2019,03,05,16,47,8.40
2019,03,05,16,48,8.40
2019,03,05,16,49,8.40
2019,03,05,16,50,8.40
2019,03,05,16,51,8.40
2019,03,05,16,52,8.40
2019,03,05,16,53,8.40
2019,03,05,16,54,8.30
2019,03,05,16,55,8.30
2019,03,05,16,56,8.40
2019,03,05,16,57,8.40
2019,03,05,16,58,8.40
2019,03,05,16,59,8.40
2019,03,05,17,00,8.40
2019,03,05,17,01,8.40
2019,03,05,17,02,8.40
2019,03,05,17,03,8.40
2019,03,05,17,04,8.30
2019,03,05,17,05,8.30
2019,03,05,17,06,8.30
2019,03,05,17,07,8.30
2019,03,05,17,08,8.20
2019,03,05,17,09,8.20
2019,03,05,17,10,8.20
2019,03,05,17,11,8.20
2019,03,05,17,12,8.20
2019,03,05,17,13,8.20
2019,03,05,17,14,8.20
2019,03,05,17,15,8.20
2019,03,05,17,16,8.20
2019,03,05,17,17,8.20
2019,03,05,17,18,8.10
2019,03,05,17,19,8.10
2019,03,05,17,20,8.10
2019,03,05,17,21,8.00
2019,03,05,17,22,8.00
2019,03,05,17,23,7.90
2019,03,05,17,24,7.90
2019,03,05,17,25,7.90
2019,03,05,17,26,7.90
2019,03,05,17,27,7.80
2019,03,05,17,28,7.80
2019,03,05,17,29,7.70
2019,03,05,17,30,7.70
2019,03,05,17,31,7.70
2019,03,05,17,32,7.60
2019,03,05,17,33,7.60
2019,03,05,17,34,7.50
2019,03,05,17,35,7.50
2019,03,05,17,36,7.40
2019,03,05,17,37,7.40
2019,03,05,17,38,7.30
2019,03,05,17,39,7.30
2019,03,05,17,40,7.30
2019,03,05,17,41,7.30
2019,03,05,17,42,7.20
2019,03,05,17,43,7.20
2019,03,05,17,44,7.20
2019,03,05,17,45,7.10
2019,03,05,17,46,7.10
2019,03,05,17,47,7.10
2019,03,05,17,48,7.00
2019,03,05,17,49,7.00
2019,03,05,17,50,6.90
2019,03,05,17,51,6.90
2019,03,05,17,52,6.90
2019,03,05,17,53,6.80
2019,03,05,17,54,6.80
2019,03,05,17,55,6.80
2019,03,05,17,56,6.80
2019,03,05,17,57,6.70
2019,03,05,17,58,6.70
2019,03,05,17,59,6.70
2019,03,05,18,00,6.70
2019,03,05,18,01,6.70
2019,03,05,18,02,6.60
2019,03,05,18,03,6.60
2019,03,05,18,04,6.60
2019,03,05,18,05,6.50
2019,03,05,18,06,6.50
2019,03,05,18,07,6.40
2019,03,05,18,08,6.40
2019,03,05,18,09,6.40
2019,03,05,18,10,6.40
2019,03,05,18,11,6.30
2019,03,05,18,12,6.30
2019,03,05,18,13,6.30
2019,03,05,18,14,6.20
2019,03,05,18,15,6.20
2019,03,05,18,16,6.20
2019,03,05,18,17,6.10
2019,03,05,18,18,6.10
2019,03,05,18,19,6.10
2019,03,05,18,20,6.00
2019,03,05,18,21,6.00
2019,03,05,18,22,6.00
2019,03,05,18,23,5.90
2019,03,05,18,24,5.90
2019,03,05,18,25,5.90
2019,03,05,18,26,5.90
2019,03,05,18,27,5.80
2019,03,05,18,28,5.80
2019,03,05,18,29,5.80
2019,03,05,18,30,5.80
2019,03,05,18,31,5.70
2019,03,05,18,32,5.70
2019,03,05,18,33,5.70
2019,03,05,18,34,5.70
2019,03,05,18,35,5.60
2019,03,05,18,36,5.60
2019,03,05,18,37,5.60
2019,03,05,18,38,5.50
2019,03,05,18,39,5.50
2019,03,05,18,40,5.40
2019,03,05,18,41,5.40
2019,03,05,18,42,5.40
2019,03,05,18,43,5.30
2019,03,05,18,44,5.30
2019,03,05,18,45,5.30
2019,03,05,18,46,5.30
2019,03,05,18,47,5.20
2019,03,05,18,48,5.20
2019,03,05,18,49,5.20
2019,03,05,18,50,5.20
2019,03,05,18,51,5.10
2019,03,05,18,52,5.10
2019,03,05,18,53,5.10
2019,03,05,18,54,5.00
2019,03,05,18,55,5.00
2019,03,05,18,56,5.00
2019,03,05,18,57,4.90
2019,03,05,18,58,4.90
2019,03,05,18,59,4.90
2019,03,05,19,00,4.90
2019,03,05,19,01,4.80
2019,03,05,19,02,4.80
2019,03,05,19,03,4.80
2019,03,05,19,04,4.70
2019,03,05,19,05,4.70
2019,03,05,19,06,4.70
2019,03,05,19,07,4.70
2019,03,05,19,08,4.60
2019,03,05,19,09,4.60
2019,03,05,19,10,4.60
2019,03,05,19,11,4.60
2019,03,05,19,12,4.60
2019,03,05,19,13,4.50
2019,03,05,19,14,4.50
2019,03,05,19,15,4.50
2019,03,05,19,16,4.50
2019,03,05,19,17,4.50
2019,03,05,19,18,4.50
2019,03,05,19,19,4.50
2019,03,05,19,20,4.40
2019,03,05,19,21,4.40
2019,03,05,19,22,4.40
2019,03,05,19,23,4.40
2019,03,05,19,24,4.40
2019,03,05,19,25,4.40
2019,03,05,19,26,4.40
2019,03,05,19,27,4.40
2019,03,05,19,28,4.30
2019,03,05,19,29,4.30
2019,03,05,19,30,4.30
2019,03,05,19,31,4.30
2019,03,05,19,32,4.30
2019,03,05,19,33,4.30
2019,03,05,19,34,4.20
2019,03,05,19,35,4.20
2019,03,05,19,36,4.20
2019,03,05,19,37,4.20
2019,03,05,19,38,4.20
2019,03,05,19,39,4.20
2019,03,05,19,40,4.20
2019,03,05,19,41,4.10
2019,03,05,19,42,4.10
2019,03,05,19,43,4.10
2019,03,05,19,44,4.10
2019,03,05,19,45,4.10
2019,03,05,19,46,4.10
2019,03,05,19,47,4.00
2019,03,05,19,48,4.00
2019,03,05,19,49,4.00
2019,03,05,19,50,4.00
2019,03,05,19,51,4.00
2019,03,05,19,52,4.00
2019,03,05,19,53,4.00
2019,03,05,19,54,3.90
2019,03,05,19,55,3.90
2019,03,05,19,56,3.90
2019,03,05,19,57,3.90
2019,03,05,19,58,3.90
2019,03,05,19,59,3.90
2019,03,05,20,00,3.90
2019,03,05,20,01,3.90
2019,03,05,20,02,3.80
2019,03,05,20,03,3.80
2019,03,05,20,04,3.80
2019,03,05,20,05,3.80
2019,03,05,20,06,3.80
2019,03,05,20,07,3.80
2019,03,05,20,08,3.80
2019,03,05,20,09,3.80
2019,03,05,20,10,3.80
2019,03,05,20,11,3.80
2019,03,05,20,12,3.70
2019,03,05,20,13,3.70
2019,03,05,20,14,3.70
2019,03,05,20,15,3.70
2019,03,05,20,16,3.70
2019,03,05,20,17,3.70
2019,03,05,20,18,3.70
2019,03,05,20,19,3.70
2019,03,05,20,20,3.70
2019,03,05,20,21,3.70
2019,03,05,20,22,3.70
2019,03,05,20,23,3.60
2019,03,05,20,24,3.60
2019,03,05,20,25,3.60
2019,03,05,20,26,3.60
2019,03,05,20,27,3.60
2019,03,05,20,28,3.60
2019,03,05,20,29,3.60
2019,03,05,20,30,3.50
2019,03,05,20,31,3.50
2019,03,05,20,32,3.50
2019,03,05,20,33,3.50
2019,03,05,20,34,3.50
2019,03,05,20,35,3.40
2019,03,05,20,36,3.40
2019,03,05,20,37,3.40
2019,03,05,20,38,3.40
2019,03,05,20,39,3.40
2019,03,05,20,40,3.40
2019,03,05,20,41,3.40
2019,03,05,20,42,3.40
2019,03,05,20,43,3.30
2019,03,05,20,44,3.30
2019,03,05,20,45,3.30
2019,03,05,20,46,3.30
2019,03,05,20,47,3.30
2019,03,05,20,48,3.30
2019,03,05,20,49,3.30
2019,03,05,20,50,3.30
2019,03,05,20,51,3.30
2019,03,05,20,52,3.30
2019,03,05,20,53,3.30
2019,03,05,20,54,3.30
2019,03,05,20,55,3.30
2019,03,05,20,56,3.30
2019,03,05,20,57,3.20
2019,03,05,20,58,3.20
2019,03,05,20,59,3.20
2019,03,05,21,00,3.20
2019,03,05,21,01,3.20
2019,03,05,21,02,3.20
2019,03,05,21,03,3.20
2019,03,05,21,04,3.20
2019,03,05,21,05,3.10
2019,03,05,21,06,3.10
2019,03,05,21,07,3.10
2019,03,05,21,08,3.10
2019,03,05,21,09,3.10
2019,03,05,21,10,3.10
2019,03,05,21,11,3.00
2019,03,05,21,12,3.00
2019,03,05,21,13,3.00
2019,03,05,21,14,3.00
2019,03,05,21,15,3.00
2019,03,05,21,16,2.90
2019,03,05,21,17,2.90
2019,03,05,21,18,2.90
2019,03,05,21,19,2.90
2019,03,05,21,20,2.80
2019,03,05,21,21,2.80
2019,03,05,21,22,2.80
2019,03,05,21,23,2.80
2019,03,05,21,24,2.80
2019,03,05,21,25,2.80
2019,03,05,21,26,2.80
2019,03,05,21,27,2.70
2019,03,05,21,28,2.70
2019,03,05,21,29,2.70
2019,03,05,21,30,2.70
2019,03,05,21,31,2.70
2019,03,05,21,32,2.70
2019,03,05,21,33,2.60
2019,03,05,21,34,2.60
2019,03,05,21,35,2.60
2019,03,05,21,36,2.60
2019,03,05,21,37,2.50
2019,03,05,21,38,2.50
2019,03,05,21,39,2.50
2019,03,05,21,40,2.40
2019,03,05,21,41,2.40
2019,03,05,21,42,2.40
2019,03,05,21,43,2.30
2019,03,05,21,44,2.30
2019,03,05,21,45,2.30
2019,03,05,21,46,2.30
2019,03,05,21,47,2.20
2019,03,05,21,48,2.20
2019,03,05,21,49,2.20
2019,03,05,21,50,2.10
2019,03,05,21,51,2.10
2019,03,05,21,52,2.10
2019,03,05,21,53,2.10
2019,03,05,21,54,2.00
2019,03,05,21,55,2.00
2019,03,05,21,56,1.90
2019,03,05,21,57,1.90
2019,03,05,21,58,1.90
2019,03,05,21,59,1.90
2019,03,05,22,00,1.80
2019,03,05,22,01,1.80
2019,03,05,22,02,1.80
2019,03,05,22,03,1.80
2019,03,05,22,04,1.70
2019,03,05,22,05,1.70
2019,03,05,22,06,1.70
2019,03,05,22,07,1.70
2019,03,05,22,08,1.60
2019,03,05,22,09,1.60
2019,03,05,22,10,1.60
2019,03,05,22,11,1.50
2019,03,05,22,12,1.50
2019,03,05,22,13,1.40
2019,03,05,22,14,1.40
2019,03,05,22,15,1.40
2019,03,05,22,16,1.30
2019,03,05,22,17,1.30
2019,03,05,22,18,1.30
2019,03,05,22,19,1.20
2019,03,05,22,20,1.20
2019,03,05,22,21,1.20
2019,03,05,22,22,1.10
2019,03,05,22,23,1.10
2019,03,05,22,24,1.10
2019,03,05,22,25,1.10
2019,03,05,22,26,1.00
2019,03,05,22,27,1.00
2019,03,05,22,28,1.00
2019,03,05,22,29,0.90
2019,03,05,22,30,0.90
2019,03,05,22,31,0.90
2019,03,05,22,32,0.80
2019,03,05,22,33,0.80
2019,03,05,22,34,0.80
2019,03,05,22,35,0.80
2019,03,05,22,36,0.70
2019,03,05,22,37,0.70
2019,03,05,22,38,0.70
2019,03,05,22,39,0.70
2019,03,05,22,40,0.60
2019,03,05,22,41,0.60
2019,03,05,22,42,0.60
2019,03,05,22,43,0.60
2019,03,05,22,44,0.50
2019,03,05,22,45,0.50
2019,03,05,22,46,0.50
2019,03,05,22,47,0.40
2019,03,05,22,48,0.40
2019,03,05,22,49,0.40
2019,03,05,22,50,0.40
2019,03,05,22,51,0.30
2019,03,05,22,52,0.30
2019,03,05,22,53,0.30
2019,03,05,22,54,0.30
2019,03,05,22,55,0.30
2019,03,05,22,56,0.30
2019,03,05,22,57,0.30
2019,03,05,22,58,0.30
2019,03,05,22,59,0.30
2019,03,05,23,00,0.30
2019,03,05,23,01,0.30
2019,03,05,23,02,0.40
2019,03,05,23,03,0.40
2019,03,05,23,04,0.40
2019,03,05,23,05,0.40
2019,03,05,23,06,0.50
2019,03,05,23,07,0.60
2019,03,05,23,08,0.70
2019,03,05,23,09,0.70
2019,03,05,23,10,0.70
2019,03,05,23,11,0.80
2019,03,05,23,12,0.80
2019,03,05,23,13,0.80
2019,03,05,23,14,0.90
2019,03,05,23,15,0.90
2019,03,05,23,16,0.90
2019,03,05,23,17,1.00
2019,03,05,23,18,1.00
2019,03,05,23,19,1.10
2019,03,05,23,20,1.10
2019,03,05,23,21,1.10
2019,03,05,23,22,1.10
2019,03,05,23,23,1.20
2019,03,05,23,24,1.20
2019,03,05,23,25,1.20
2019,03,05,23,26,1.30
2019,03,05,23,27,1.30
2019,03,05,23,28,1.30
2019,03,05,23,29,1.30
2019,03,05,23,30,1.30
2019,03,05,23,31,1.30
2019,03,05,23,32,1.30
2019,03,05,23,33,1.30
2019,03,05,23,34,1.30
2019,03,05,23,35,1.30
2019,03,05,23,36,1.30
2019,03,05,23,37,1.30
2019,03,05,23,38,1.40
2019,03,05,23,39,1.40
2019,03,05,23,40,1.40
2019,03,05,23,41,1.40
2019,03,05,23,42,1.50
2019,03,05,23,43,1.50
2019,03,05,23,44,1.50
2019,03,05,23,45,1.50
2019,03,05,23,46,1.50
2019,03,05,23,47,1.50
2019,03,05,23,48,1.50
2019,03,05,23,49,1.50
2019,03,05,23,50,1.50
2019,03,05,23,51,1.50
2019,03,05,23,52,1.50
2019,03,05,23,53,1.50
2019,03,05,23,54,1.50
2019,03,05,23,55,1.50
2019,03,05,23,56,1.50
2019,03,05,23,57,1.40
2019,03,05,23,58,1.50
2019,03,05,23,59,1.40
